Regional Weather Roundup
Issued by NWS

Home | Current Version | Previous Version | Graphics & Text | Print | Product List | Glossary On
Versions: 1 2 3 4 5 6 7 8 9 10 11 12 13 14 15 16 17 18 19 20 21 22 23 24 25 26 27 28
000
ASUS45 KBOU 221707
RWRCO

WEATHER ROUNDUP FOR COLORADO
NATIONAL WEATHER SERVICE DENVER/BOULDER CO
1100 AM MDT FRI SEP 22 2017

NOTE: "FAIR" INDICATES FEW OR NO CLOUDS BELOW 12000 FEET WITH NO
SIGNIFICANT WEATHER AND/OR OBSTRUCTIONS TO VISIBILITY.

COZ001>005-013-030-031-221800-
...NORTHWEST COLORADO...

CITY           SKY/WX    TMP DP  RH WIND       PRES   REMARKS
CRAIG          PTSUNNY   61  34  36 NE8       29.88S
HAYDEN         FAIR      63  33  32 S17G25    29.89F
MEEKER         FAIR      67  29  24 S22G35    29.85F
RABBIT EARS PA PTSUNNY   46  34  61 S14G29    30.09F
STEAMBOAT SPGS CLOUDY    50  40  69 E9        29.94F
WALDEN         FAIR      57  32  38 SW22G30   29.98F
$$

COZ006>008-011-221800-
...WEST CENTRAL VALLEYS...

CITY           SKY/WX    TMP DP  RH WIND       PRES   REMARKS
GRAND JUNCTION FAIR      74  31  20 SW16G26   29.79S
MONTROSE       PTSUNNY   68  35  29 S13       29.87F
EAGLE          PTSUNNY   62  38  40 VRB6      29.92
RIFLE          FAIR      67  39  35 S21G29    29.83F
DELTA          FAIR      70  38  31 SW9       29.85F
NUCLA          FAIR      68  32  26 S22G32    29.92S
$$

COZ017>023-064>068-221800-
...SOUTHWEST COLORADO...

CITY           SKY/WX    TMP DP  RH WIND       PRES   REMARKS
DURANGO        LGT RAIN  58  46  64 W12G21    30.04R
CORTEZ         CLOUDY    67  32  27 S21       29.93S
PAGOSA SPRINGS CLOUDY    60  36  39 S9        30.07F
TELLURIDE      LGT RAIN  47  39  73 S16G24    30.09R
WOLF CREEK PAS CLOUDY    36  34  93 S15G23    30.30S
$$

COZ009-010-012-014-032>034-037-058>063-221800-
...CENTRAL COLORADO...

CITY           SKY/WX    TMP DP  RH WIND       PRES   REMARKS
ASPEN          LGT RAIN  60  36  40 S10       29.94F
BUENA VISTA    PTSUNNY   63  31  30 SE16G24   30.00F
COPPER MTN     FAIR      50  25  37 S24G38    30.18S
BERTHOUD PASS  CLOUDY    43  34  70 SW20G36   30.22F
COTTONWOOD PAS CLOUDY    57  34  41 SE8       30.11F
GUNNISON       FAIR      65  34  31 S16G29    29.95F
KREMMLING      FAIR      66  32  28 SW8G23    29.95F
LEADVILLE      CLOUDY    52  26  36 S17       30.07F
MONARCH PASS   PTSUNNY   45  30  57 W16G26    30.32F
SALIDA         PTSUNNY   64  33  31 S12G18    30.06F
SUNLIGHT       LGT RAIN  37  36  93 SW15G24   30.13R
WILKERSON PASS FAIR      52  27  37 SW20G31   30.18S
$$

COZ069>075-221800-
...SAN LUIS VALLEY/SANGRE DE CRISTO MOUNTAINS...

CITY           SKY/WX    TMP DP  RH WIND       PRES   REMARKS
ALAMOSA        FAIR      68  33  27 SW30G38   30.02S
DEL NORTE      FAIR      65  31  28 SW17G32   30.03F
LA VETA PASS   FAIR      57  30  35 S35G74    30.25R
SAGUACHE       FAIR      68  32  26 SW15G28   30.01F
$$

COZ035-036-038>040-221800-
...NORTHERN COLORADO FRONT RANGE...

CITY           SKY/WX    TMP DP  RH WIND       PRES   REMARKS
DENVER INTL AP FAIR      69  37  30 NE5       29.82F
DMNS CITY PARK   N/A     66  37  34 NW6G17    29.83S
AURORA         MOSUNNY   74  38  27 N5        29.83F
FRONT RANGE AP NOT AVBL
ERIE MUNI ARPT FAIR      63  36  35 N5        29.88S
BOULDER MUN AP FAIR      63  36  36 N3        29.83S
CENTENNIAL     FAIR      71  39  31 N7        29.83F
BROOMFIELD     MOSUNNY   64  36  34 N7        29.85F
FORT COLLINS   FAIR      63  40  42 CALM      29.84S
LONGMONT       FAIR      66  40  38 E6        29.85S
$$

COZ041-046-047-076>085-087-088-221800-
...PIKES PEAK/PALMER DIVIDE AND SOUTHERN FOOTHILLS...

CITY           SKY/WX    TMP DP  RH WIND       PRES   REMARKS
COLO. SPRINGS  PTSUNNY   76  35  22 S18G31    29.91F
A. F. ACADEMY  FAIR      74  32  21 SE23G29   29.90R
SCHRIEVER AFB  FAIR      73  33  22 SE16      29.92F
CHEYENNE MTN   FAIR      69  32  25 SE24G35   29.87S
ELLICOTT         N/A    N/A N/A N/A S12G24    29.91S
FALCON         FAIR      73  30  20 MISG      29.96F
FORT CARSON    NOT AVBL
LIMON            N/A    N/A N/A N/A MISG      29.87S
MONUMENT HILL  FAIR      68  32  26 S23       29.95S
CANON CITY     MOSUNNY   79  39  24 SE5       29.85F
WALSENBURG     FAIR      77  30  18 SW28G39   29.91F
TRINIDAD       FAIR      74  37  26 S17G24    29.93F
$$

COZ042>045-048>051-090-091-221800-
...NORTHEAST COLORADO...

CITY           SKY/WX    TMP DP  RH WIND       PRES   REMARKS
GREELEY ARPT   FAIR      65  41  41 NE10      29.83S
AKRON          FAIR      68  38  33 SE6       29.83S
BURLINGTON     FAIR      85  44  23 S22G28    29.84R
WRAY           FAIR      75  34  22 CALM      29.80S
YUMA           FAIR      64  28  25 NE5       29.82S
STERLING       FAIR      63  45  51 E5        29.81S
HOLYOKE        FAIR      72  39  30 N3        29.81S
FORT MORGAN    FAIR      67  37  32 NE8       29.82F
$$

COZ086-089-092>099-221800-
...SOUTHEAST COLORADO...

CITY           SKY/WX    TMP DP  RH WIND       PRES   REMARKS
PUEBLO         FAIR      82  37  20 S8        29.81F
LA JUNTA       FAIR      86  38  18 S14G26    29.83S
LAMAR          FAIR      87  41  19 SW26G36   29.81S
SPRINGFIELD      N/A     85  48  27 SW22G32   29.90S
$$




USA.gov is the U.S. government's official web portal to all federal, state and local government web resources and services.